Flag for United Kingdom Weather past 2 weeks in Newcastle upon Tyne, England, United Kingdom

Now
68 °F

Passing clouds.


Feels Like: 68 °F
Forecast: 54 / 73 °F
Wind: 9 mph from Northeast

Location: Newcastle

Current Time: Jul 24, 2014 at 5:01:40 PM

Latest Report: Jul 24, 2014 at 4:20 PM


Visibility: N/A

Pressure: 30.18 "Hg

Humidity: 73%

Dew point: 59 °F

Location of Newcastle upon TyneLocation

Historic Weather in Newcastle upon Tyne — Graph

°F

Newcastle upon Tyne temperature yesterday

Maximum temperature yesterday: 66 °F (at 2:20 PM)
Minimum temperature yesterday: 57 °F (at 3:20 AM)
Average temperature yesterday: 61 °F

Past Weeks' High & Low Weather Summary

 TemperatureHumidityPressure
High73 °F (Jul 12, 11:50 AM)100% (Jul 11, 6:20 AM)30.30 "Hg (Jul 11, 6:20 AM)
Low48 °F (Jul 14, 5:20 AM)49% (Jul 15, 12:50 PM)29.68 "Hg (Jul 13, 4:50 AM)
Average62 °F81%30.01 "Hg
* Reported Jul 9 3:20 PM — Jul 24 3:50 PM, Newcastle upon Tyne, Weather by CustomWeather, © 2014

Note: Actual official high and low records may vary slightly from our data, if they occured in-between our weather recording intervals... More about our weather records

Advertising

Newcastle upon Tyne weather history for previous 24 hours

 ConditionsComfort  
Time TempWeatherWind HumidityBarometerVisibility
3:50 PM
Jul 24
70 °FPassing clouds.9 mph69%30.18 "HgN/A
3:20 PM70 °FSunny.9 mph69%30.18 "Hg10 mi
2:50 PM70 °FPassing clouds.9 mph64%30.18 "HgN/A
2:20 PM70 °FSunny.10 mph69%30.18 "Hg10 mi
1:50 PM70 °FPassing clouds.9 mph69%30.18 "HgN/A
1:20 PM70 °FPassing clouds.8 mph73%30.18 "HgN/A
12:50 PM68 °FPassing clouds.7 mph73%30.21 "HgN/A
12:20 PM68 °FPassing clouds.7 mph69%30.21 "HgN/A
11:50 AM68 °FPassing clouds.6 mph73%30.21 "HgN/A
11:20 AM66 °FSunny.5 mph78%30.21 "Hg10 mi
10:50 AM64 °FScattered clouds.6 mph78%30.21 "HgN/A
10:20 AM63 °FPartly sunny.5 mph83%30.21 "Hg5 mi
9:50 AM61 °FPartly sunny.3 mph88%30.21 "Hg4 mi
9:20 AM59 °FFog.7 mph88%30.21 "Hg3 mi
8:50 AM59 °FFog.7 mph88%30.21 "Hg3 mi
8:20 AM59 °FFog.6 mph88%30.21 "Hg3 mi
7:50 AM57 °FFog.6 mph94%30.21 "Hg3 mi
7:20 AM57 °FFog.5 mph100%30.21 "Hg3 mi
6:50 AM57 °FFog.3 mph94%30.21 "HgN/A
6:20 AM57 °FFog.6 mph94%30.21 "Hg1 mi
5:50 AM57 °FFog.6 mph94%30.21 "Hg1 mi
5:20 AM57 °FFog.5 mph94%30.21 "Hg1 mi
4:50 AM57 °FFog.6 mph100%30.21 "Hg2 mi
4:20 AM57 °FFog.5 mph100%30.21 "Hg3 mi
3:50 AM59 °FPassing clouds.3 mph94%30.21 "Hg4 mi
2:50 AM59 °FPassing clouds.3 mph94%30.21 "HgN/A
1:50 AM59 °FPassing clouds.3 mph94%30.24 "HgN/A
1:20 AM59 °FPassing clouds.3 mph94%30.24 "HgN/A
12:50 AM59 °FPassing clouds.No wind94%30.24 "HgN/A
12:20 AM59 °FPassing clouds.3 mph94%30.24 "HgN/A
11:50 PM
Jul 23
59 °FPassing clouds.No wind94%30.24 "HgN/A
11:20 PM59 °FPassing clouds.3 mph94%30.24 "HgN/A
10:50 PM59 °FPassing clouds.3 mph94%30.24 "HgN/A
10:20 PM59 °FPartly sunny.5 mph94%30.24 "HgN/A
9:50 PM59 °FPartly sunny.5 mph94%30.24 "HgN/A
9:20 PM61 °FPartly sunny.5 mph88%30.24 "HgN/A
8:50 PM61 °FPartly sunny.5 mph88%30.24 "HgN/A
8:20 PM61 °FPartly sunny.6 mph88%30.21 "HgN/A
7:50 PM61 °FScattered clouds.8 mph88%30.21 "HgN/A
7:20 PM63 °FScattered clouds.8 mph88%30.21 "HgN/A
6:50 PM64 °FPassing clouds.7 mph83%30.24 "HgN/A
6:20 PM64 °FPassing clouds.8 mph83%30.24 "HgN/A
5:50 PM64 °FPassing clouds.9 mph83%30.24 "HgN/A
5:20 PM66 °FPassing clouds.9 mph78%30.24 "HgN/A
Weather by CustomWeather, © 2014

See weather overviewHow to use our weather pages